Retour au catalogue

COSMOS 1275 DEB

ActifPO
NORAD 13484·DEBRIS·🇷🇺 Russia

Lancé Jun 4, 1981 depuis Plesetsk Cosmodrome

Loading…

Prochains Passages (prochaines 24 heures)

TLE

FraisSource: Space-Track

Époque: Sep 13, 2026, 12:26 UTC

1 13484U 81053GE  26256.51819082  .00000922  00000-0  57937-3 0  9999
2 13484  82.9150 279.3469 0030410  95.1403  25.2092 14.03173705238236

Suivez COSMOS 1275 DEB en temps réel avec AllMySat

Download on the App Store